sat.trackr.live / text

‹ back to catalog

YAM-15

NORAD 68997 · 2026-100T

PAYLOAD ACTIVE UNKNOWN

§ Identity

Operator
Country
US
Launch date
2026-05-03
Launch site
AFWTR
Launch vehicle
Mass (kg)
RCS (m²)

External: N2YO · Heavens-Above · Gunter

§ Orbital elements

Epoch: 2026-09-19T23:48:05.783040Z

Period
96.62 min
Inclination
97.7758°
Eccentricity
0.0001909
Mean motion
14.90439076 rev/d
Perigee alt
595.2 km
Apogee alt
597.9 km
Semi-major
6,974.7 km
B*
1.0604e-4
RAAN
158.8739°
Arg perigee
79.1758°
Mean anomaly
280.9675°
Rev number
2,082

§ Raw data

YAM-151 68997U 26100T   26262.99173360  .00000979  00000+0  10604-3 0  99922 68997  97.7758 158.8739 0001909  79.1758 280.9675 14.90439076 20823

JSON: /api/v1/satellites/68997 · /tle

For live sub-satellite position, see the globe view (requires WebGL).

§ Visibility from observer

Set your observer location to see the next 7 days of passes ≥ 10°. The values pass through the URL so the page stays shareable.

No JS? Fill the form by hand. The geolocation button needs JavaScript.